Weather History for KSAW - May, 2013

Change the Weather History Date:

Monday, May 13, 2013

  Actual Average (KMQT) Record (KMQT)
Temperature  
Mean Temperature 38 °F 50 °F  
Max Temperature 53 °F 61 °F 86 °F (1991)
Min Temperature 23 °F 39 °F 25 °F (2013)
Degree Days  
Heating Degree Days 27 15  
Month to date heating degree days 228  
Since 1 July heating degree days 8930  
Cooling Degree Days 0 0  
Month to date cooling degree days 0  
Year to date cooling degree days 1  
Moisture  
Dew Point 22 °F    
Average Humidity 60    
Maximum Humidity 83    
Minimum Humidity 28    
Precipitation  
Precipitation 0.00 in 0.09 in 2.27 in (1978)
Month to date precipitation 1.15  
Year to date precipitation 11.74  
Snow  
Snow 0.00 in 0.10 in 0.30 in (1997)
Month to date snowfall 1.3  
Since 1 July snowfall 203.1  
Snow Depth -    
Sea Level Pressure  
Sea Level Pressure 30.03 in    
Wind  
Wind Speed 6 mph (West)    
Max Wind Speed 18 mph    
Max Gust Speed 28 mph    
Visibility 10 miles    
Events      
T = Trace of Precipitation, MM = Missing Value Source: NWS Daily Summary

Daily Weather History Graph

Daily Weather History Graph

Search for Another Location

Airport or City:

Trip Planner

Search our weather history database for the weather conditions in past years. The results will help you decide how hot, cold, wet, or windy it might be!

Date:

Astronomy

May. 13, 2013 Rise Set
Actual Time 6:18 AM EDT 9:14 PM EDT
Civil Twilight 5:43 AM EDT 9:49 PM EDT
Nautical Twilight 4:58 AM EDT 10:34 PM EDT
Astronomical Twilight 4:04 AM EDT 11:28 PM EDT
Moon 9:02 AM EDT (5/13) No Moon Set
Length of Visible Light 16h 06m
Length of Day
14h 55m
Waxing Crescent, 12% of the Moon is Illuminated
May 13
Waxing Crescent
May 18
First Quarter
May 25
Full
May 31
Last Quarter
Jun 8
New

Hourly Weather History & Observations

Time (EDT) Temp. Windchill Dew Point Humidity Pressure Visibility Wind Dir Wind Speed Gust Speed Precip Events Conditions
12:17 AM 30.2 °F 24.3 °F 20.3 °F 67% 30.06 in 10.0 mi NW 5.8 mph - N/A   Clear
12:37 AM 30.4 °F 23.6 °F 20.7 °F 67% 30.06 in 10.0 mi NW 6.9 mph - N/A   Clear
12:57 AM 29.5 °F 23.4 °F 20.3 °F 69% 30.06 in 10.0 mi WNW 5.8 mph - N/A   Clear
1:17 AM 28.4 °F - 20.3 °F 72% 30.06 in 10.0 mi Calm Calm - N/A   Clear
1:37 AM 26.2 °F 20.7 °F 19.9 °F 77% 30.06 in 10.0 mi WNW 4.6 mph - N/A   Clear
1:57 AM 28.4 °F 22.2 °F 20.3 °F 72% 30.06 in 10.0 mi WNW 5.8 mph - N/A   Clear
2:17 AM 27.3 °F 19.9 °F 20.3 °F 75% 30.06 in 10.0 mi WNW 6.9 mph - N/A   Clear
2:37 AM 27.5 °F 20.2 °F 20.5 °F 75% 30.06 in 10.0 mi WNW 6.9 mph - N/A   Clear
2:57 AM 27.5 °F 19.3 °F 20.3 °F 74% 30.06 in 10.0 mi WNW 8.1 mph - N/A   Clear
3:16 AM 27.5 °F 20.2 °F 20.3 °F 74% 30.06 in 10.0 mi West 6.9 mph - N/A   Clear
3:37 AM 27.0 °F 21.6 °F 20.3 °F 76% 30.06 in 10.0 mi West 4.6 mph - N/A   Clear
3:57 AM 25.7 °F 20.1 °F 20.1 °F 79% 30.06 in 10.0 mi West 4.6 mph - N/A   Clear
4:16 AM 25.3 °F - 19.9 °F 80% 30.06 in 10.0 mi Calm Calm - N/A   Clear
4:37 AM 25.3 °F - 19.8 °F 79% 30.06 in 10.0 mi Calm Calm - N/A   Clear
4:57 AM 24.4 °F - 19.2 °F 81% 30.06 in 10.0 mi Calm Calm - N/A   Clear
5:17 AM 23.9 °F - 19.4 °F 83% 30.06 in 10.0 mi Calm Calm - N/A   Clear
5:37 AM 25.7 °F - 19.9 °F 79% 30.06 in 10.0 mi Calm Calm - N/A   Clear
5:57 AM 24.8 °F - 19.4 °F 80% 30.06 in 10.0 mi Calm Calm - N/A   Clear
6:55 AM 24.8 °F - 19.4 °F 80% 30.08 in 10.0 mi Calm Calm - N/A   Clear
7:50 AM 30.2 °F - 23.0 °F 75% 30.09 in 10.0 mi Calm Calm - N/A   Clear
8:50 AM 37.4 °F 31.4 °F 23.0 °F 56% 30.10 in 10.0 mi WNW 8.1 mph - N/A   Clear
9:55 AM 42.8 °F 39.3 °F 19.4 °F 39% 30.10 in 10.0 mi WNW 5.8 mph - N/A   Clear
10:55 AM 44.6 °F 39.7 °F 19.4 °F 37% 30.10 in 10.0 mi NW 9.2 mph 16.1 mph N/A   Clear
11:50 AM 46.4 °F 44.3 °F 19.4 °F 34% 30.09 in 10.0 mi West 4.6 mph - N/A   Clear
12:50 PM 48.2 °F - 19.4 °F 32% 30.07 in 10.0 mi NNW 10.4 mph 24.2 mph N/A   Clear
1:50 PM 50.0 °F - 19.4 °F 30% 30.05 in 10.0 mi NNW 5.8 mph - N/A   Clear
2:55 PM 53.6 °F - 21.2 °F 28% 30.03 in 10.0 mi WNW 9.2 mph - N/A   Clear
4:50 PM 53.6 °F - 24.8 °F 33% 29.98 in 10.0 mi ENE 12.7 mph 27.6 mph N/A   Clear
5:50 PM 51.8 °F - 23.0 °F 33% 29.98 in 10.0 mi ENE 11.5 mph - N/A   Clear
6:50 PM 51.8 °F - 24.8 °F 35% 29.97 in 10.0 mi SSE 12.7 mph 16.1 mph N/A   Scattered Clouds
7:50 PM 50.0 °F - 26.6 °F 40% 29.94 in 10.0 mi South 16.1 mph - N/A   Overcast
8:50 PM 46.4 °F 39.2 °F 26.6 °F 46% 29.94 in 10.0 mi South 18.4 mph - N/A   Overcast
9:50 PM 42.8 °F 35.1 °F 26.6 °F 53% 29.95 in 10.0 mi South 16.1 mph - N/A   Overcast
9:52 PM 42.8 °F 35.1 °F 26.6 °F 53% 29.95 in 10.0 mi South 16.1 mph - N/A   Overcast
10:17 PM 43.3 °F 36.1 °F 27.3 °F 53% 29.96 in 10.0 mi South 15.0 mph 20.7 mph N/A   Overcast
10:37 PM 42.8 °F 36.6 °F 28.8 °F 58% 29.95 in 10.0 mi South 11.5 mph 18.4 mph N/A   Light Drizzle
10:57 PM 42.8 °F 36.2 °F 28.4 °F 57% 29.94 in 10.0 mi South 12.7 mph - N/A   Overcast
11:17 PM 42.6 °F 35.2 °F 28.6 °F 58% 29.93 in 10.0 mi South 15.0 mph - N/A   Overcast
11:37 PM 41.7 °F 35.2 °F 30.4 °F 64% 29.91 in 10.0 mi South 11.5 mph 17.3 mph N/A   Light Drizzle
11:57 PM 41.4 °F 34.3 °F 30.2 °F 65% 29.90 in 10.0 mi SSE 12.7 mph - N/A   Overcast